Location: Newark
(52.0178°N, 4.7453°W)
Time: 10:53:34
(UTC+00:00)

ISS - Pass Details

Date: 25 March 2019
Orbit: 408 x 410 km, 51.6° (Epoch: 24 April)

Event Time Altitude Azimuth Distance (km) Brightness Sun altitude
Rises 20:46:47 0° 255° (WSW) 2,334 0.7 -19.3°
Reaches altitude 10° 20:48:53 10° 253° (WSW) 1,474 -0.4 -19.5°
Enters shadow 20:51:50 65° 218° (SW) 455 -3.7 -19.9°
